Regional Weather Roundup
Issued by NWS

Home | Current Version | Previous Version | Graphics & Text | Print | Product List | Glossary On
Versions: 1 2 3 4 5 6 7 8 9 10 11 12 13 14 15 16 17 18 19 20 21 22 23 24 25 26 27 28 29 30 31 32 33 34 35 36 37 38 39 40 41 42 43 44 45 46 47 48 49 50
000
ASUS45 KSLC 300410
RWRUT

UTAH REGIONAL WEATHER ROUNDUP
NATIONAL WEATHER SERVICE SALT LAKE CITY UT
1000 PM MDT FRI APR 29 2016

UTZ001>011-023>025-300500-

NORTHERN UTAH

CITY           SKY/WX    TMP DP  RH WIND       PRES   REMARKS
BRIGHAM CITY   MOCLDY    47  37  68 E5        29.87S
HILL AFB       MOCLDY    47  38  69 N9        29.86R
LOGAN          PTCLDY    46  39  76 CALM      29.87R
OGDEN          MOCLDY    47  38  71 N9        29.85R
PROVO AIRPORT  CLOUDY    48  37  66 SE5       29.86R
SALT LAKE CITY MOCLDY    49  38  65 N10       29.85R
VERNAL         PTCLDY    41  31  67 CALM      29.85R
WENDOVER       CLOUDY    45  39  81 N15       29.90R
HEBER CITY     PTCLDY    41  34  75 SW8       29.86R

$$

UTZ012>022-026-027-300500-

SOUTHERN/CENTRAL UTAH

CITY           SKY/WX    TMP DP  RH WIND       PRES   REMARKS
BLANDING       PTCLDY    41  34  76 NW7       29.93S
BRYCE CANYON   MOCLDY    35  30  82 W6        29.91S WCI  30
CEDAR CITY     CLOUDY    44  36  73 S6        29.88R
DELTA          MOCLDY    45  37  76 NW5       29.87R
HANKSVILLE     MOCLDY    52  37  58 SW3       29.84R
MILFORD        CLOUDY    47  40  76 CALM      29.86R
MOAB/CYNLANDS  PTCLDY    47  40  76 NW7       29.81R
PRICE          MOCLDY    43  32  65 NW6       29.83R
ST GEORGE      CLOUDY    52  43  71 E14       29.85F
KANAB          CLOUDY    46  43  87 CALM      29.94R

$$

REGIONAL REPORTS     COLORADO/ARIZONA

CITY           SKY/WX    TMP DP  RH WIND       PRES   REMARKS
CRAIG, CO      CLOUDY    39  30  70 W8        29.85R WCI  33
GRAND JUNCTION CLOUDY    45  41  86 S7        29.83R
RIFLE          LGT RAIN  44  39  82 SW7       29.83R
MONTROSE       CLOUDY    45  34  65 SW7       29.86R
CORTEZ         CLOUDY    39  36  89 CALM      29.86S
PAGE, AZ       CLOUDY    57  34  41 W9G16     29.83R
GRAND CANYON   MOCLDY    41  33  73 CALM      29.93R
KINGMAN        CLEAR     59  40  49 S6        29.81S
FLAGSTAFF      MOCLDY    38  37  97 SW3       29.95R

$$

REGIONAL REPORTS    NEVADA/IDAHO/WYOMING

CITY           SKY/WX    TMP DP  RH WIND       PRES   REMARKS
LAS VEGAS, NV  PTCLDY    71  31  22 SW5       29.67S
ELY            CLOUDY    41  35  79 W7        29.89R
ELKO           CLOUDY    41  39  93 SW7       29.90R
POCATELLO, ID  CLOUDY    45  41  86 CALM      29.87R
BURLEY         CLOUDY    46  41  82 S5        29.85R
EVANSTON, WY   CLOUDY    36  27  69 E7        29.89R WCI  30
ROCK SPRINGS   CLOUDY    35  29  78 NE13      29.92R WCI  26
KEMMERER         N/A     32  28  86 E7        29.92R WCI  26

$$



USA.gov is the U.S. government's official web portal to all federal, state and local government web resources and services.